FW4584 Weather Reports


Display with metric or nautical units.
time (UTC)temp
F
wind
direction
speed
MPH
gust
MPH
rain 1hr
in
rain 24hr
in
rain mn
in
humidity
%
barometer
mb
20260504080412 56 218 6.0 16.0 0.00 0.00 0.00 47 996.2
20260504070112 57 223 5.0 11.0 0.00 0.00 0.00 44 997.5
20260504050412 56 204 1.0 7.0 0.00 0.00 0.00 48 1000.2
20260504045512 56 215 1.0 7.0 0.00 0.00 0.00 49 1000.3
20260504044612 55 222 1.0 4.0 0.00 0.00 0.00 51 1000.4
20260504043712 55 215 0.0 3.0 0.00 0.00 0.00 53 1000.5
20260504042812 55 215 0.0 1.0 0.00 0.00 0.00 52 1000.8
20260504041011 56 214 0.0 3.0 0.00 0.00 0.00 51 1001.1
20260504040112 56 0 0.0 0.0 0.00 0.00 0.00 51 1001.3
20260504035212 56 0 0.0 0.0 0.00 0.00 0.00 48 1001.5
20260504034311 56 0 0.0 0.0 0.00 0.00 0.00 46 1001.6
20260504032511 56 358 0.0 1.0 0.00 0.00 0.00 45 1001.9
20260504031611 56 0 0.0 0.0 0.00 0.00 0.00 46 1002.0
20260504030711 56 0 0.0 0.0 0.00 0.00 0.00 47 1002.1
20260504025811 57 0 0.0 0.0 0.00 0.00 0.00 47 1002.3
20260504024911 58 0 0.0 0.0 0.00 0.00 0.00 47 1002.2
20260504024011 59 0 0.0 0.0 0.00 0.00 0.00 48 1002.3
20260504023111 59 0 0.0 0.0 0.00 0.00 0.00 40 1002.3
20260504015511 62 0 0.0 0.0 0.00 0.00 0.00 36 1002.6
20260504014611 63 0 0.0 0.0 0.00 0.00 0.00 36 1002.6
20260504013711 64 0 0.0 0.0 0.00 0.00 0.00 36 1002.7
20260504012811 65 0 0.0 0.0 0.00 0.00 0.00 37 1002.8
20260504011911 66 0 0.0 0.0 0.00 0.00 0.00 32 1002.8
20260504011011 67 261 1.0 4.0 0.00 0.00 0.00 32 1002.8
20260504010111 67 268 2.0 8.0 0.00 0.00 0.00 30 1002.9
20260504005211 68 269 3.0 6.0 0.00 0.00 0.00 29 1003.0
20260504004311 68 279 3.0 9.0 0.00 0.00 0.00 28 1003.1
20260504003411 68 282 3.0 10.0 0.00 0.00 0.00 28 1003.1
20260504002511 68 283 5.0 13.0 0.00 0.00 0.00 28 1003.2
20260504001611 68 286 7.0 12.0 0.00 0.00 0.00 28 1003.3
20260503235811 69 289 8.0 14.0 0.00 0.00 0.00 27 1003.3
20260503234011 69 285 7.0 14.0 0.00 0.00 0.00 28 1003.4
20260503232211 70 281 7.0 15.0 0.00 0.00 0.00 26 1003.4
20260503231311 70 291 9.0 18.0 0.00 0.00 0.00 26 1003.5
20260503230411 70 295 6.0 18.0 0.00 0.00 0.00 26 1003.6
20260503225511 70 285 6.0 13.0 0.00 0.00 0.00 27 1003.8
20260503223711 70 289 7.0 16.0 0.00 0.00 0.00 25 1003.8
20260503222811 70 310 10.0 18.0 0.00 0.00 0.00 26 1003.8
20260503221910 70 290 7.0 13.0 0.00 0.00 0.00 26 1003.9
20260503221010 70 288 10.0 19.0 0.00 0.00 0.00 26 1004.0
20260503220110 70 297 8.0 16.0 0.00 0.00 0.00 26 1004.0
20260503215211 70 307 9.0 17.0 0.00 0.00 0.00 26 1004.1
20260503214310 70 298 11.0 24.0 0.00 0.00 0.00 25 1004.2
20260503212510 70 296 8.0 15.0 0.00 0.00 0.00 27 1004.3
20260503211610 70 299 8.0 16.0 0.00 0.00 0.00 28 1004.4
20260503210710 69 287 9.0 17.0 0.00 0.00 0.00 27 1004.5
20260503205810 69 307 11.0 18.0 0.00 0.00 0.00 26 1004.7
20260503204910 69 303 10.0 17.0 0.00 0.00 0.00 26 1004.8
20260503204010 69 330 13.0 22.0 0.00 0.00 0.00 26 1004.8
20260503203110 69 326 13.0 22.0 0.00 0.00 0.00 26 1004.9
20260503202210 68 311 13.0 20.0 0.00 0.00 0.00 26 1005.1
20260503201310 68 315 10.0 19.0 0.00 0.00 0.00 25 1005.2
20260503200410 68 333 11.0 18.0 0.00 0.00 0.00 27 1005.1
20260503195510 68 302 9.0 16.0 0.00 0.00 0.00 26 1005.3
20260503193710 67 326 11.0 21.0 0.00 0.00 0.00 28 1005.4
20260503191910 68 310 12.0 19.0 0.00 0.00 0.00 29 1005.7
20260503191010 67 328 12.0 20.0 0.00 0.00 0.00 31 1005.8
20260503190110 67 326 13.0 23.0 0.00 0.00 0.00 31 1005.9
20260503185210 67 314 13.0 20.0 0.00 0.00 0.00 32 1006.0
20260503184310 67 330 14.0 26.0 0.00 0.00 0.00 34 1006.0
20260503182510 66 339 15.0 21.0 0.00 0.00 0.00 31 1006.1
20260503181610 67 345 15.0 24.0 0.00 0.00 0.00 32 1006.2
20260503180710 67 343 15.0 23.0 0.00 0.00 0.00 31 1006.2
20260503175810 66 341 17.0 23.0 0.00 0.00 0.00 33 1006.2
20260503174910 66 341 16.0 22.0 0.00 0.00 0.00 31 1006.4
20260503174010 66 342 15.0 23.0 0.00 0.00 0.00 34 1006.3
20260503173109 66 340 13.0 20.0 0.00 0.00 0.00 33 1006.4
20260503172209 66 343 15.0 22.0 0.00 0.00 0.00 32 1006.4
20260503171310 65 332 16.0 26.0 0.00 0.00 0.00 34 1006.6
20260503170410 65 334 16.0 24.0 0.00 0.00 0.00 35 1006.5
20260503160109 64 330 17.0 24.0 0.00 0.00 0.00 42 1006.4
20260503150709 62 331 13.0 21.0 0.00 0.00 0.00 49 1006.2
20260503131009 56 338 14.0 22.0 0.00 0.00 0.00 57 1005.5
20260503130109 55 336 14.0 20.0 0.00 0.00 0.00 58 1005.3
20260503110408 50 271 2.0 7.0 0.00 0.00 0.00 61 1003.3
20260503100108 52 252 2.0 6.0 0.00 0.00 0.00 61 1003.2